{"data":{"norad_id":59165,"intl_designator":"2024-044P","name":"STARLINK-31325","alt_names":[],"object_type":"PAYLOAD","status":"ACTIVE","operator":null,"country":"US","launch_date":"2024-03-04","launch_site_code":"AFETR","launch_vehicle":null,"mission":null,"orbit_class":"UNKNOWN","rcs_meters":null,"size_class":null,"mass_kg":null,"dimensions":null,"purposes":["comms"],"wikipedia_slug":null,"has_3d_model":false,"image_url":null,"decayed_at":null,"tle_current":{"epoch":"2026-05-24T23:22:32.507904Z","epoch_age_seconds":87784,"freshness":"FRESH","line1":"1 59165U 24044P   26144.97398736 -.00000576  00000+0 -11391-4 0  9997","line2":"2 59165  43.0035  36.0974 0001204 265.5661  94.5053 15.27581594125236","mean_motion":15.27581594,"eccentricity":0.0001204,"inclination_deg":43.0035,"raan_deg":36.0974,"arg_perigee_deg":265.5661,"mean_anomaly_deg":94.5053,"bstar":-1.1391e-5,"rev_number":12523,"period_min":94.266650348237,"perigee_km":482.21823680307,"apogee_km":483.87040926566,"semimajor_km":6861.1813230344,"source":"CELESTRAK","updated_at":"2026-05-25T13:38:18.835119Z"}}}